OPS 4682 DEB, 38372

Orbit data source: Space-Track

OPS 4682 DEB, 38372 is space debris in LEO originally from a launch on Sat, 03 Apr 1965 UTC launched from the Air Force Western Test Range (AFWTR). Debris objects in space refer to the collection of defunct objects orbiting the Earth. Examples of debris include non-operational satellites, rocket bodies, and fragments generated from explosions, collisions, or faulty payload assembly.

Loading next visibility...
Identifier
38372, 1965-027BZ
Orbit
LEO
Country
Flag of USUS
Related business
Manufacturer
Unknown
Mission
Spacecraft
Bus & Motor
Unknown
Mass
Unknown
Launch date (UTC)
1965-04-03 (61 years ago)
Launch vehicle
Unknown
Launch site
Air Force Western Test Range (AFWTR)
Object type
Payload
Rocket body
Debris
Shape & HBR
Unknown shape, 0.1 m
Radar Cross Section
Small (<0.1 m²)

Expand to show TLE details & history
Last TLE update: 15 hours ago

TLE from 15 hours ago
0 OPS 4682 DEB
1 38372U 65027BZ  26067.90112610  .00000852  00000-0  28891-2 0  9999
2 38372  90.3087  37.1138 0029585 304.1002  55.7312 12.97889168650467
Epoch: 2026-03-08T21:37Z
TLE epoch observation values (Epoch: 2026-03-08T21:37:37.295Z)
Latitude
-0.00003°
Longitude
-93.89337°
Altitude
1,260.551 km
Speed
7.231 km/s
True Right ascension
02h 28m 27s
True Declination
0° 00' 00"
Sunlit
Object was in daylight at epoch
Visualization orbit readout
Latitude
Unknown
Longitude
Unknown
Altitude
Unknown
Speed
Unknown
Apparent Right ascension
Unknown
Apparent Declination
Unknown
Sunlit
N/A
Visualization observer readout
Local Sidereal Time
16:34:41
Azimuth
Unknown
Elevation
Unknown
Doppler factor
Unknown
Orbital elements
Apogee altitude
1,290.118 km
Perigee altitude
1,244.879 km
Semi-major axis
7,645.635 km
Eccentricity
0.00296
Inclination
90.3087°
RAAN
37.1138°
Arg. of periapsis
304.1002°
True anomaly
56.01195°
Mean anomaly
55.7312°
Eccentric anomaly
55.87152°
Mean motion
3.24656 °/min
Orbital period
110.89 mins
BSTAR
0.0028891
Loading maneuver chart data...
Computing Atmospheric mass density...
Loading historical data...
Loading historical data...
Loading historical data...
Loading historical data...
Loading historical data...
Loading historical data...
Loading historical data...

Documentation

Showing up to 5 results
|